• In Belarus
  • List of Countries
  • For 7 days
  • Water Temperature
  • Satellite Maps
  • Weather Map
  • Weather Widgets
  • user-avatar
    Login

    Hourly Weather Chhibramau

    Today, 20 September, Thursday

    Time Temperature Precipitation Wind Pressure Humidity
    00:00 +29°C° 0 mm 1 mps 739 mmHg 54%
    01:00 +28°C° 0 mm 1 mps 739 mmHg 56%
    02:00 +28°C° 0 mm 1 mps 739 mmHg 58%
    03:00 +28°C° 0 mm 1 mps 739 mmHg 59%
    04:00 +27°C° 0 mm 1 mps 739 mmHg 60%
    05:00 +27°C° 0 mm 1 mps 739 mmHg 62%
    06:00 +28°C° 0 mm 1 mps 740 mmHg 59%
    07:00 +29°C° 0 mm 1 mps 740 mmHg 56%
    08:00 +30°C° 0 mm 2 mps 741 mmHg 54%
    09:00 +32°C° 0 mm 2 mps 741 mmHg 49%
    10:00 +34°C° 0 mm 2 mps 741 mmHg 44%
    11:00 +36°C° 0 mm 2 mps 741 mmHg 39%
    12:00 +37°C° 0 mm 2 mps 740 mmHg 36%
    13:00 +37°C° 0 mm 2 mps 740 mmHg 33%
    14:00 +38°C° 0 mm 2 mps 739 mmHg 30%
    15:00 +37°C° 0 mm 2 mps 739 mmHg 33%
    16:00 +37°C° 0 mm 2 mps 739 mmHg 36%
    17:00 +36°C° 0 mm 2 mps 739 mmHg 39%
    18:00 +35°C° 0 mm 2 mps 739 mmHg 41%
    19:00 +32°C° 0 mm 2 mps 740 mmHg 44%
    20:00 +31°C° 0 mm 2 mps 740 mmHg 46%
    21:00 +31°C° 0 mm 2 mps 740 mmHg 49%
    22:00 +31°C° 0 mm 2 mps 740 mmHg 51%
    23:00 +30°C° 0 mm 2 mps 741 mmHg 54%

    Tomorrow, 21 September, Friday

    Time Temperature Precipitation Wind Pressure Humidity
    00:00 +30°C° 0 mm 3 mps 741 mmHg 59%
    01:00 +30°C° 0 mm 3 mps 740 mmHg 63%
    02:00 +30°C° 0 mm 4 mps 740 mmHg 68%
    03:00 +29°C° 0 mm 4 mps 741 mmHg 71%
    04:00 +29°C° 0 mm 4 mps 741 mmHg 74%
    05:00 +29°C° 0 mm 4 mps 741 mmHg 78%
    06:00 +29°C° 0 mm 5 mps 741 mmHg 75%
    07:00 +30°C° 0 mm 5 mps 742 mmHg 73%
    08:00 +32°C° 0 mm 6 mps 743 mmHg 70%
    09:00 +32°C° 0 mm 6 mps 743 mmHg 70%
    10:00 +32°C° 0 mm 6 mps 743 mmHg 69%
    11:00 +32°C° 0 mm 6 mps 743 mmHg 68%
    12:00 +30°C° 0 mm 6 mps 743 mmHg 71%
    13:00 +29°C° 0 mm 6 mps 742 mmHg 74%
    14:00 +28°C° 0 mm 5 mps 741 mmHg 78%
    15:00 +29°C° 0 mm 5 mps 741 mmHg 77%
    16:00 +29°C° 0 mm 5 mps 741 mmHg 76%
    17:00 +29°C° 0 mm 6 mps 741 mmHg 75%
    18:00 +29°C° 0.5 mm 5 mps 741 mmHg 77%
    19:00 +28°C° 0.5 mm 5 mps 742 mmHg 78%
    20:00 +28°C° 0.5 mm 5 mps 742 mmHg 80%
    21:00 +27°C° 0.9 mm 5 mps 742 mmHg 81%
    22:00 +27°C° 0.9 mm 4 mps 742 mmHg 82%
    23:00 +26°C° 0.9 mm 4 mps 742 mmHg 83%

    Day after tomorrow, 22 September, Saturday

    Time Temperature Precipitation Wind Pressure Humidity
    00:00 +26°C° 1.6 mm 5 mps 742 mmHg 83%
    01:00 +26°C° 1.6 mm 5 mps 742 mmHg 84%
    02:00 +26°C° 1.6 mm 5 mps 741 mmHg 85%
    03:00 +26°C° 0.6 mm 5 mps 742 mmHg 86%
    04:00 +26°C° 0.6 mm 5 mps 742 mmHg 86%
    05:00 +26°C° 0.6 mm 5 mps 742 mmHg 87%
    06:00 +27°C° 0.1 mm 6 mps 742 mmHg 85%
    07:00 +28°C° 0.1 mm 6 mps 743 mmHg 82%
    08:00 +28°C° 0.1 mm 7 mps 743 mmHg 80%
    09:00 +30°C° 0 mm 7 mps 743 mmHg 75%
    10:00 +32°C° 0 mm 7 mps 743 mmHg 71%
    11:00 +33°C° 0 mm 7 mps 743 mmHg 67%
    12:00 +33°C° 0.1 mm 7 mps 742 mmHg 65%
    13:00 +34°C° 0.1 mm 7 mps 742 mmHg 63%
    14:00 +34°C° 0.1 mm 6 mps 741 mmHg 61%
    15:00 +34°C° 0.1 mm 6 mps 741 mmHg 63%
    16:00 +33°C° 0.1 mm 5 mps 741 mmHg 66%
    17:00 +33°C° 0.1 mm 5 mps 740 mmHg 68%
    18:00 +32°C° 0 mm 5 mps 741 mmHg 71%
    19:00 +30°C° 0 mm 5 mps 742 mmHg 74%
    20:00 +30°C° 0 mm 5 mps 742 mmHg 77%
    21:00 +29°C° 0 mm 5 mps 743 mmHg 79%
    22:00 +29°C° 0 mm 5 mps 743 mmHg 80%
    23:00 +29°C° 0 mm 4 mps 743 mmHg 82%

    23 September, Sunday

    Time Temperature Precipitation Wind Pressure Humidity
    00:00 +28°C° 0.2 mm 4 mps 743 mmHg 83%
    01:00 +28°C° 0.2 mm 4 mps 742 mmHg 83%
    02:00 +28°C° 0.2 mm 4 mps 742 mmHg 84%
    03:00 +28°C° 0.4 mm 4 mps 742 mmHg 85%
    04:00 +27°C° 0.4 mm 3 mps 743 mmHg 86%
    05:00 +27°C° 0.4 mm 3 mps 743 mmHg 87%
    06:00 +28°C° 0.2 mm 3 mps 743 mmHg 82%
    07:00 +29°C° 0.2 mm 3 mps 744 mmHg 77%
    08:00 +30°C° 0.2 mm 4 mps 744 mmHg 72%
    09:00 +32°C° 0.1 mm 4 mps 744 mmHg 65%
    10:00 +34°C° 0.1 mm 4 mps 744 mmHg 59%
    11:00 +35°C° 0.1 mm 4 mps 744 mmHg 53%
    12:00 +36°C° 0 mm 4 mps 743 mmHg 51%
    13:00 +36°C° 0 mm 4 mps 742 mmHg 50%
    14:00 +36°C° 0 mm 4 mps 742 mmHg 48%
    15:00 +36°C° 0 mm 4 mps 741 mmHg 51%
    16:00 +35°C° 0 mm 3 mps 741 mmHg 54%
    17:00 +34°C° 0 mm 3 mps 741 mmHg 57%
    18:00 +33°C° 0 mm 3 mps 741 mmHg 59%
    19:00 +32°C° 0 mm 2 mps 742 mmHg 61%
    20:00 +31°C° 0 mm 2 mps 742 mmHg 63%
    21:00 +30°C° 0 mm 2 mps 742 mmHg 66%
    22:00 +30°C° 0 mm 2 mps 742 mmHg 68%
    23:00 +30°C° 0 mm 2 mps 743 mmHg 70%

    24 September, Monday

    Time Temperature Precipitation Wind Pressure Humidity
    00:00 +29°C° 0 mm 2 mps 742 mmHg 72%
    01:00 +29°C° 0 mm 2 mps 742 mmHg 74%
    02:00 +29°C° 0 mm 2 mps 742 mmHg 75%
    03:00 +28°C° 0 mm 2 mps 742 mmHg 76%
    04:00 +28°C° 0 mm 2 mps 742 mmHg 77%
    05:00 +28°C° 0 mm 2 mps 742 mmHg 78%
    06:00 +29°C° 0 mm 2 mps 743 mmHg 74%
    07:00 +30°C° 0 mm 2 mps 743 mmHg 71%
    08:00 +31°C° 0 mm 3 mps 744 mmHg 67%
    09:00 +33°C° 0 mm 3 mps 744 mmHg 62%
    10:00 +34°C° 0 mm 4 mps 743 mmHg 58%
    11:00 +35°C° 0 mm 4 mps 743 mmHg 53%
    12:00 +36°C° 0.1 mm 4 mps 742 mmHg 52%
    13:00 +36°C° 0.1 mm 4 mps 742 mmHg 50%
    14:00 +36°C° 0.1 mm 3 mps 741 mmHg 49%
    15:00 +36°C° 0 mm 3 mps 741 mmHg 51%
    16:00 +35°C° 0 mm 2 mps 740 mmHg 54%
    17:00 +35°C° 0 mm 2 mps 740 mmHg 56%
    18:00 +34°C° 0 mm 2 mps 741 mmHg 58%
    19:00 +32°C° 0 mm 2 mps 741 mmHg 59%
    20:00 +31°C° 0 mm 2 mps 742 mmHg 61%
    21:00 +31°C° 0 mm 2 mps 742 mmHg 62%
    22:00 +31°C° 0 mm 2 mps 742 mmHg 64%
    23:00 +30°C° 0 mm 2 mps 742 mmHg 65%

    25 September, Tuesday

    Time Temperature Precipitation Wind Pressure Humidity
    00:00 +30°C° 0 mm 2 mps 742 mmHg 67%
    01:00 +30°C° 0 mm 2 mps 741 mmHg 68%
    02:00 +29°C° 0 mm 2 mps 741 mmHg 70%
    03:00 +29°C° 0.2 mm 2 mps 741 mmHg 72%
    04:00 +29°C° 0.2 mm 2 mps 741 mmHg 74%
    05:00 +28°C° 0.2 mm 2 mps 741 mmHg 76%
    06:00 +29°C° 0.3 mm 3 mps 742 mmHg 74%
    07:00 +30°C° 0.3 mm 3 mps 742 mmHg 71%
    08:00 +32°C° 0.3 mm 4 mps 743 mmHg 69%
    09:00 +33°C° 0 mm 4 mps 742 mmHg 64%
    10:00 +34°C° 0 mm 4 mps 742 mmHg 59%
    11:00 +36°C° 0 mm 4 mps 742 mmHg 54%
    12:00 +36°C° 0.3 mm 4 mps 741 mmHg 54%
    13:00 +36°C° 0.3 mm 4 mps 740 mmHg 53%
    14:00 +36°C° 0.3 mm 4 mps 739 mmHg 52%
    15:00 +36°C° 1.2 mm 3 mps 739 mmHg 57%
    16:00 +35°C° 1.2 mm 3 mps 739 mmHg 61%
    17:00 +34°C° 1.2 mm 3 mps 739 mmHg 65%
    18:00 +32°C° 0.1 mm 2 mps 739 mmHg 68%
    19:00 +31°C° 0.1 mm 2 mps 740 mmHg 71%
    20:00 +31°C° 0.1 mm 2 mps 740 mmHg 74%
    21:00 +30°C° 0.1 mm 2 mps 740 mmHg 75%
    22:00 +30°C° 0.1 mm 2 mps 740 mmHg 76%
    23:00 +30°C° 0.1 mm 2 mps 740 mmHg 77%
    Show more